User: anonymous   Login
Location: Utrecht
(52.0830°N, 5.1330°E)
Time: 02:49:18
(UTC+02:00)
Language:

Cosmos 1092 Rocket - Orbit

View from above orbital plane
View from above orbital plane
View from above satellite
View from above satellite

Ground track
Ground track

The orbit data is extracted from the following two-line orbital elements,

1 11327U 79030B   17084.87402980 +.00000038 +00000-0 +23090-4 0  9990
2 11327 082.9535 357.7207 0028896 054.3804 012.2802 13.76971293907465
Epoch (UTC): 25 March 2017 20:58:36
Eccentricity: 0.0028896
inclination: 82.9535°
perigee height: 953 km
apogee height: 996 km
right ascension of ascending node: 357.7207°
argument of perigee: 54.3804°
revolutions per day: 13.76971293
mean anomaly at epoch: 12.2802°
orbit number at epoch: 90746

The dashed part of the orbit path shows where the satellite is in the earth's shadow,  

DLR